DAL629 KDCA-KCLE

Flight info

Callsign DAL629
Flight time N/A
Altitude 34000
Route HORTO4 JERES J211 JST UPPRR TRYBE4
Aircraft A320/M-SDE3FGHIRWY/LB1

Departure

Time 2026-04-30 22:22
Airport Ronald Reagan Washington National Airport (KDCA)

Arrival

Time N/A
Airport Cleveland Hopkins International Airport (KCLE)
Time Latitude Longitude Altitude Speed Heading
2026-04-30 21:45 38.85248 -77.04159 24 ft 0 kts 162°
2026-04-30 21:58 38.85249 -77.04159 24 ft 0 kts 162°
2026-04-30 22:07 38.85255 -77.04162 24 ft 4 kts 173°
2026-04-30 22:07 38.85277 -77.04152 26 ft 4 kts 216°
2026-04-30 22:07 38.85297 -77.04146 26 ft 4 kts 159°
2026-04-30 22:07 38.85317 -77.04162 26 ft 4 kts 97°
2026-04-30 22:08 38.85308 -77.04188 28 ft 4 kts 45°
2026-04-30 22:08 38.85290 -77.04213 28 ft 3 kts 65°
2026-04-30 22:08 38.85288 -77.04218 28 ft 3 kts 72°
2026-04-30 22:13 38.85305 -77.04155 26 ft 15 kts 72°
2026-04-30 22:14 38.85338 -77.04017 24 ft 16 kts 74°
2026-04-30 22:14 38.85289 -77.03931 24 ft 13 kts 171°
2026-04-30 22:14 38.85202 -77.03922 24 ft 12 kts 176°
2026-04-30 22:14 38.85077 -77.03910 24 ft 25 kts 176°
2026-04-30 22:15 38.84882 -77.03891 24 ft 29 kts 175°
2026-04-30 22:15 38.84685 -77.03869 25 ft 28 kts 175°
2026-04-30 22:15 38.84494 -77.03851 24 ft 27 kts 175°
2026-04-30 22:15 38.84335 -77.03835 25 ft 14 kts 175°
2026-04-30 22:16 38.84298 -77.03823 28 ft 2 kts 146°
2026-04-30 22:16 38.84289 -77.03806 26 ft 3 kts 116°
2026-04-30 22:17 38.84285 -77.03795 25 ft 0 kts 116°
2026-04-30 22:19 38.84284 -77.03794 25 ft 1 kts 116°
2026-04-30 22:19 38.84268 -77.03752 24 ft 7 kts 116°
2026-04-30 22:19 38.84289 -77.03689 23 ft 5 kts 355°
2026-04-30 22:20 38.84296 -77.03689 23 ft 0 kts 355°
2026-04-30 22:21 38.84333 -77.03694 26 ft 30 kts 354°
2026-04-30 22:21 38.84803 -77.03741 24 ft 102 kts 355°
2026-04-30 22:21 38.85710 -77.03830 44 ft 155 kts 350°
2026-04-30 22:22 38.86783 -77.03939 739 ft 152 kts 341°
2026-04-30 22:22 38.87685 -77.04580 1467 ft 148 kts 316°
2026-04-30 22:22 38.88482 -77.05437 2073 ft 154 kts 316°
2026-04-30 22:22 38.89359 -77.06385 2401 ft 176 kts 317°
2026-04-30 22:23 38.90235 -77.07593 2663 ft 196 kts 298°
2026-04-30 22:23 38.90922 -77.09227 2941 ft 220 kts 297°
2026-04-30 22:23 38.91853 -77.10920 3357 ft 246 kts 318°
2026-04-30 22:23 38.93328 -77.12084 4151 ft 257 kts 327°
2026-04-30 22:24 38.94882 -77.13242 5068 ft 258 kts 326°
2026-04-30 22:24 38.96281 -77.14668 5940 ft 258 kts 305°
2026-04-30 22:24 38.97029 -77.16734 6784 ft 256 kts 281°
2026-04-30 22:24 38.97335 -77.18724 7569 ft 257 kts 279°
2026-04-30 22:25 38.97681 -77.20995 8444 ft 260 kts 279°
2026-04-30 22:25 38.98032 -77.23285 9323 ft 262 kts 279°
2026-04-30 22:25 38.98387 -77.25595 10123 ft 266 kts 280°
2026-04-30 22:25 38.98760 -77.28005 10504 ft 286 kts 280°
2026-04-30 22:26 39.00442 -77.32907 11569 ft 313 kts 304°
2026-04-30 22:26 39.01963 -77.34929 12334 ft 319 kts 314°
2026-04-30 22:26 39.03619 -77.36849 13122 ft 321 kts 313°
2026-04-30 22:27 39.05285 -77.38785 13864 ft 324 kts 313°
2026-04-30 22:27 39.06965 -77.40745 14570 ft 327 kts 313°
2026-04-30 22:27 39.10478 -77.44551 15841 ft 339 kts 323°
2026-04-30 22:28 39.15125 -77.46325 17078 ft 366 kts 352°
2026-04-30 22:28 39.17697 -77.46296 17686 ft 372 kts 354°
2026-04-30 22:29 39.25572 -77.46149 19327 ft 382 kts 354°
2026-04-30 22:29 39.28243 -77.46105 19881 ft 385 kts 353°
2026-04-30 22:30 39.39141 -77.45924 22023 ft 398 kts 353°
2026-04-30 22:31 39.47502 -77.45785 23562 ft 407 kts 353°
2026-04-30 22:32 39.56092 -77.45655 24762 ft 414 kts 352°
2026-04-30 22:32 39.61526 -77.47242 25527 ft 394 kts 326°
2026-04-30 22:33 39.67038 -77.54502 26567 ft 376 kts 290°
2026-04-30 22:33 39.68990 -77.60817 27308 ft 379 kts 288°
2026-04-30 22:34 39.71922 -77.70446 28424 ft 385 kts 288°
2026-04-30 22:35 39.73886 -77.76903 29109 ft 389 kts 288°
2026-04-30 22:36 39.77737 -77.89597 30317 ft 396 kts 288°
2026-04-30 22:36 39.78746 -77.92935 30571 ft 398 kts 288°
2026-04-30 22:37 39.81799 -78.03032 31260 ft 403 kts 288°
2026-04-30 22:37 39.82821 -78.06425 31552 ft 402 kts 288°
2026-04-30 22:37 39.85714 -78.12701 32212 ft 411 kts 305°
2026-04-30 22:38 39.89438 -78.18343 32848 ft 410 kts 305°
2026-04-30 22:38 39.93148 -78.23984 33491 ft 409 kts 305°
2026-04-30 22:39 39.94993 -78.26808 33828 ft 409 kts 304°
2026-04-30 22:39 40.00441 -78.35156 33998 ft 397 kts 304°
2026-04-30 22:40 40.05792 -78.43372 34008 ft 395 kts 304°
2026-04-30 22:41 40.14666 -78.57042 34002 ft 396 kts 304°
2026-04-30 22:43 40.25336 -78.73543 33968 ft 396 kts 304°
2026-04-30 22:44 40.32456 -78.84606 33971 ft 401 kts 306°
2026-04-30 22:45 40.39736 -78.94632 33984 ft 422 kts 309°
2026-04-30 22:45 40.43823 -79.00171 33986 ft 422 kts 308°
2026-04-30 22:47 40.55942 -79.16994 34007 ft 423 kts 308°
2026-04-30 22:48 40.64012 -79.28251 34007 ft 422 kts 308°
2026-04-30 22:49 40.76073 -79.45152 34006 ft 423 kts 308°
2026-04-30 22:50 40.84062 -79.56400 34020 ft 409 kts 307°
2026-04-30 22:51 40.87927 -79.61851 34029 ft 405 kts 307°
2026-04-30 22:52 40.93678 -79.69997 33768 ft 399 kts 307°
2026-04-30 22:52 40.97432 -79.75318 33233 ft 392 kts 307°
2026-04-30 22:53 41.01222 -79.80728 32539 ft 419 kts 307°
2026-04-30 22:53 41.05211 -79.86426 31527 ft 421 kts 307°
2026-04-30 22:53 41.07204 -79.89252 31022 ft 418 kts 308°
2026-04-30 22:54 41.11152 -79.94849 30057 ft 412 kts 307°
2026-04-30 22:55 41.16938 -80.03131 28645 ft 404 kts 307°
2026-04-30 22:55 41.20733 -80.08582 27757 ft 399 kts 307°
2026-04-30 22:56 41.24304 -80.14118 26862 ft 387 kts 296°
2026-04-30 22:56 41.27383 -80.23755 25379 ft 374 kts 287°
2026-04-30 22:57 41.29296 -80.30138 24366 ft 370 kts 287°
2026-04-30 22:57 41.31171 -80.36419 23258 ft 366 kts 287°
2026-04-30 22:58 41.33033 -80.42662 22231 ft 360 kts 287°
2026-04-30 22:59 41.35775 -80.51854 20738 ft 353 kts 287°
2026-04-30 22:59 41.38460 -80.60893 19262 ft 347 kts 287°